This is the latest recevied weather packets stored in our database for station/object KQ4UPF. If no packets are shown the sender has not sent any weather packets the latest 10 day(s).
| Time | Temp. | Humidity | Pressure | Rain* | Wind** | Luminosity | Snow |
|---|---|---|---|---|---|---|---|
| 1778009115 | 25° C | 39% | 1013.6 hPa | 0 mm | - | 422 W/m² | - |
| 1778008812 | 26.11° C | 42% | 1013.9 hPa | 0 mm | - | 472 W/m² | - |
| 1778008511 | 26.11° C | 43% | 1014.3 hPa | 0 mm | - | 682 W/m² | - |
| 1778008208 | 25.56° C | 39% | 1014.2 hPa | 0 mm | - | 857 W/m² | - |
| 1778007903 | 25.56° C | 40% | 1014.1 hPa | 0 mm | - | 820 W/m² | - |
| 1778007598 | 26.11° C | 40% | 1014.1 hPa | 0 mm | - | 776 W/m² | - |
| 1778007296 | 25.56° C | 46% | 1014.2 hPa | 0 mm | - | 903 W/m² | - |
| 1778006992 | 25.56° C | 46% | 1014.4 hPa | 0 mm | - | 903 W/m² | - |
| 1778006689 | 25.56° C | 46% | 1014.6 hPa | 0 mm | - | 853 W/m² | - |
| 1778006385 | 25.56° C | 46% | 1014.4 hPa | 0 mm | - | 974 W/m² | - |
| 1778006083 | 25.56° C | 41% | 1014.5 hPa | 0 mm | - | 931 W/m² | - |
| 1778005779 | 25.56° C | 42% | 1014.5 hPa | 0 mm | - | 965 W/m² | - |
| 1778005476 | 25.56° C | 50% | 1014.4 hPa | 0 mm | - | 990 W/m² | - |
| 1778005172 | 25.56° C | 45% | 1014.4 hPa | 0 mm | - | 957 W/m² | - |
| 1778004870 | 25.56° C | 48% | 1014.4 hPa | 0 mm | - | 1043 W/m² | - |
| 1778004567 | 25.56° C | 42% | 1014.4 hPa | 0 mm | - | 1074 W/m² | - |
| 1778004263 | 25.56° C | 53% | 1014.4 hPa | 0 mm | - | 931 W/m² | - |
| 1778003960 | 25.56° C | 42% | 1014.7 hPa | 0 mm | - | 1044 W/m² | - |
| 1778003656 | 25.56° C | 44% | 1014.8 hPa | 0 mm | - | 735 W/m² | - |
| 1778003352 | 25.56° C | 45% | 1014.7 hPa | 0 mm | - | 940 W/m² | - |
| 1778003050 | 25° C | 45% | 1014.5 hPa | 0 mm | - | 1075 W/m² | - |
| 1778002746 | 25° C | 46% | 1014.7 hPa | 0 mm | - | 1006 W/m² | - |
| 1778002442 | 24.44° C | 45% | 1014.9 hPa | 0 mm | - | 824 W/m² | - |
| 1778002140 | 24.44° C | 46% | 1015.1 hPa | 0 mm | - | 766 W/m² | - |
| 1778001838 | 25° C | 43% | 1015.2 hPa | 0 mm | - | 862 W/m² | - |
* Rain latest hour (hover to see other rain measurements)
** Current wind speed in m/s (hover to see current wind gust speed)